Showing default

GEESAT 2-01, 58905

Orbit data source: Space-Track

GEESAT 2-01, 58905 is a payload satellite owned by GeeSpace (CN) in LEO that was launched on Fri, 02 Feb 2024 UTC via a CHANG ZHENG 2C launch vehicle from the Xichang Space Center, China (XSC). Payload-class satellites include a variety of spacecraft equipped with specific instruments for various scientific and technological missions. These include communications satellites like Starlink; space stations such as the ISS; scientific satellites like the Hubble; Earth observation satellites from companies like Planet Labs, Umbra, and HawkEye 360; GPS; miniature CubeSats for education and research; and military/defense satellites.

Loading next visibility...
Identifier
58905, 2024-023A
Orbit
LEO
Last TLE update
7 hours ago
Origin
Manufacturer
Taizhou Xingkong
Mission
Operational Commercial Navigation
Bus & Motor
GEESAT1, Unknown motor
Mass
130 kg wet, 130 kg dry
Launch date (UTC)
2024-02-02 (1 year ago)
Launch vehicle
CHANG ZHENG 2C
Launch site
Xichang Space Center, China (XSC)
Object type
Payload
Rocket body
Debris
Shape & HBR
Box + 2 Pan, 2 m
Radar Cross Section
0.833 m², Medium (>0.1 m² and < 1m²)

Expand to show TLE details & history

TLE from 7 hours ago
0 GEESAT 2-01
1 58905U 24023A   25183.93847817  .00002388  00000-0  24812-3 0  9995
2 58905  49.9930 178.0361 0005066 268.6701  91.3660 14.93390937 76989
Epoch: 2025-07-02T22:31Z
TLE epoch observation values (Epoch: 2025-07-02T22:31:24.513Z)
Latitude
-0.00011°
Longitude
-81.02853°
Altitude
588.003 km
Speed
7.567 km/s
True Right ascension
11h 52m 08s
True Declination
0° 00' 00"
Sunlit
Object was in daylight at epoch
Visualization orbit readout
Latitude
49.63284°
Longitude
-3.26309°
Altitude
596.284 km
Speed
7.566 km/s
Apparent Right ascension
05h 20m 18s
Apparent Declination
72° 56' 20"
Sunlit
Object is in daylight
Visualization observer readout
Local Sidereal Time
17:04:30
Azimuth
358.743° N
Elevation
22.888°
Doppler factor
1
Orbital elements
Apogee altitude
591.663 km
Perigee altitude
584.605 km
Semi-major axis
6,966.271 km
Eccentricity
0.00051
Inclination
49.993°
RAAN
178.0361°
Arg. of periapsis
268.6701°
True anomaly
Unknown
Mean anomaly
91.366°
Eccentric anomaly
Unknown
Mean motion
3.73287 °/min
Orbital period
96.44 mins
BSTAR
0.00024812
Loading maneuver chart data...
Loading SW <> Apogee altitude chart data...
Loading historical data...
Loading historical data...
Loading historical data...
Loading historical data...
Loading historical data...
Loading historical data...
Loading historical data...

GEESAT 2-01 Visibility forecast

Observer location: undefined°, undefined°

Span
Click to sort rows by Start time (UTC) header in descending order
Start Az.
Max El. time (UTC)
Max El. Az.
Max El.
End time (UTC)
End Az.
6 mins2025-07-03 06:58:01.105Z327.869° NNW2025-07-03 07:00:01.105Z2.957° NNE22.613°2025-07-03 07:04:01.105Z68.453° E
7 mins2025-07-03 08:39:01.105Z312.094° NW2025-07-03 08:42:01.105Z62.214° ENE42.358°2025-07-03 08:46:01.105Z115.615° SE
5 mins2025-07-03 10:20:01.105Z263.776° W2025-07-03 10:22:01.105Z228.829° WSW19.964°2025-07-03 10:25:01.105Z181.411° SSW
7 mins2025-07-04 02:00:01.105Z209.058° SW2025-07-04 02:03:01.105Z146.003° SSE36.916°2025-07-04 02:07:01.105Z66.076° ENE
7 mins2025-07-04 03:41:01.105Z275.383° WNW2025-07-04 03:44:01.105Z339.069° N31.507°2025-07-04 03:48:01.105Z46° ENE
|